Change the Weather History Date:

Thursday, January 26, 2012

  Actual Average Record
Temperature  
Mean Temperature 39 °F 30 °F  
Max Temperature 51 °F 46 °F 79 °F (1951)
Min Temperature 27 °F 14 °F -19 °F (1950)
Degree Days  
Heating Degree Days 26 35  
Month to date heating degree days 883 944  
Since 1 July heating degree days 3201 3257  
Cooling Degree Days 0 0  
Month to date cooling degree days 0 0  
Year to date cooling degree days 0 0  
Moisture  
Dew Point 26 °F    
Average Humidity 61    
Maximum Humidity 85    
Minimum Humidity 36    
Precipitation  
Precipitation 0.00 in 0.02 in 0.66 in (1944)
Month to date precipitation T 0.23  
Year to date precipitation T 0.23  
Sea Level Pressure  
Sea Level Pressure 29.97 in    
Wind  
Wind Speed 8 mph (SW)    
Max Wind Speed 17 mph    
Max Gust Speed 22 mph    
Visibility 10 miles    
Events      
T = Trace of Precipitation, MM = Missing Value Source: NWS Daily Summary

Daily Weather History Graph

Daily Weather History Graph

Search for Another Location

Airport or City:

Trip Planner

Search our weather history database for the weather conditions in past years. The results will help you decide how hot, cold, wet, or windy it might be!

Date:

Astronomy

Jan. 26, 2012 Rise Set
Actual Time 7:00 AM MST 5:06 PM MST
Civil Twilight 6:32 AM MST 5:34 PM MST
Nautical Twilight 6:00 AM MST 6:06 PM MST
Astronomical Twilight 5:29 AM MST 6:37 PM MST
Moon 8:33 AM MST (1/26) 8:56 PM MST (1/26)
Length of Visible Light 11h 02m
Length of Day
10h 06m
Waxing Crescent, 13% of the Moon is Illuminated
Jan 26
Waxing Crescent
Jan 30
First Quarter
Feb 7
Full
Feb 14
Last Quarter
Feb 21
New

Hourly Weather History & Observations

Time (MST) Temp. Windchill Dew Point Humidity Pressure Visibility Wind Dir Wind Speed Gust Speed Precip Events Conditions
12:53 AM 30.9 °F 22.8 °F 26.1 °F 82% 30.04 in 10.0 mi SW 9.2 mph - N/A   Clear
1:53 AM 30.0 °F 24.1 °F 25.0 °F 82% 30.05 in 10.0 mi SSW 5.8 mph - N/A   Clear
2:53 AM 28.0 °F 21.7 °F 25.0 °F 88% 30.07 in 10.0 mi Variable 5.8 mph - N/A   Clear
3:53 AM 30.9 °F 22.2 °F 26.1 °F 82% 30.09 in 10.0 mi West 10.4 mph - N/A   Clear
5:53 AM 30.0 °F 25.2 °F 23.0 °F 75% 30.15 in 10.0 mi WNW 4.6 mph - N/A   Clear
7:53 AM 30.0 °F 25.2 °F 25.0 °F 82% 30.20 in 10.0 mi WSW 4.6 mph - N/A   Clear
8:53 AM 35.1 °F 26.9 °F 28.0 °F 76% 30.19 in 10.0 mi West 11.5 mph - N/A   Clear
9:53 AM 39.9 °F 31.8 °F 26.1 °F 58% 30.17 in 10.0 mi West 15.0 mph - N/A   Clear
10:53 AM 43.0 °F 36.4 °F 28.0 °F 56% 30.16 in 10.0 mi West 12.7 mph - N/A   Clear
11:53 AM 46.9 °F - 26.1 °F 44% 30.10 in 10.0 mi West 10.4 mph - N/A   Clear
12:53 PM 48.0 °F - 26.1 °F 42% 30.04 in 10.0 mi SW 9.2 mph - N/A   Clear
1:53 PM 50.0 °F - 24.1 °F 36% 29.98 in 10.0 mi South 4.6 mph - N/A   Clear
2:53 PM 51.1 °F - 26.1 °F 38% 29.96 in 10.0 mi SE 6.9 mph - N/A   Clear
3:53 PM 48.9 °F - 28.0 °F 44% 29.93 in 10.0 mi ESE 8.1 mph - N/A   Clear
4:53 PM 44.1 °F 38.6 °F 28.0 °F 53% 29.89 in 10.0 mi ESE 10.4 mph - N/A   Clear
5:53 PM 41.0 °F 34.3 °F 28.9 °F 62% 29.89 in 10.0 mi ESE 11.5 mph - N/A   Clear
6:53 PM 39.9 °F 31.4 °F 28.0 °F 63% 29.86 in 10.0 mi ESE 16.1 mph - N/A   Clear
7:53 PM 39.0 °F 30.3 °F 27.0 °F 62% 29.80 in 10.0 mi SE 16.1 mph - N/A   Clear
8:53 PM 41.0 °F - 26.1 °F 55% 29.75 in 10.0 mi Calm Calm - N/A   Clear
9:53 PM 41.0 °F 35.2 °F 26.1 °F 55% 29.72 in 10.0 mi South 9.2 mph - N/A   Clear
10:53 PM 37.0 °F - 26.1 °F 65% 29.71 in 10.0 mi Calm Calm - N/A   Clear
11:53 PM 36.0 °F 31.1 °F 27.0 °F 70% 29.70 in 10.0 mi WNW 5.8 mph - N/A   Clear